Location: Constantia
(34.0183°S, 18.4411°E)
Time: 15:36:08
(UTC+00:00)

Cosmos 1900 - Pass Details

Date: 17 February 2020
Orbit: 691 x 731 km, 66.1° (Epoch: 27 March)

Event Time Altitude Azimuth Distance (km) Brightness Sun altitude
Exits shadow 02:16:42 69° 270° (W) 784 4.3 -24.3°
Maximum altitude 02:17:00 72° 242° (WSW) 775 4.3 -24.3°
Drops below altitude 10° 02:22:09 10° 157° (SSE) 2,254 7.7 -23.4°
Sets 02:24:33 0° 155° (SSE) 3,185 8.7 -23.0°
